Location: Dumpton Point
(51.3500°N, 1.4433°E)
Time: 21:41:54
(UTC+00:00)

Tiros 1 despin weight - Pass Details

Date: 21 April 2021
Orbit: 593 x 642 km, 48.2° (Epoch: 06 May)

Event Time Altitude Azimuth Distance (km) Brightness Sun altitude
Exits shadow 04:01:08 - 198° (SSW) 2,848 ? -7.2°
Reaches altitude 10° 04:04:07 10° 177° (S) 1,997 ? -6.8°
Maximum altitude 04:06:44 15° 142° (SE) 1,676 ? -6.4°
Drops below altitude 10° 04:09:21 10° 107° (ESE) 1,985 ? -6.1°
Sets 04:12:29 0° 84° (E) 2,882 ? -5.6°
